Weather History for East Midlands, United Kingdom

Change the Weather History Date:

Friday, August 16, 2013

  Actual Average Record
Temperature  
Mean Temperature 64 °F -  
Max Temperature 69 °F 65 °F 84 °F (1997)
Min Temperature 57 °F 51 °F 48 °F (1999)
Degree Days  
Heating Degree Days 1    
Growing Degree Days 14 (Base 50)    
Moisture  
Dew Point 58 °F    
Average Humidity 80    
Maximum Humidity 94    
Minimum Humidity 60    
Precipitation  
Precipitation 0.00 in - - ()
Sea Level Pressure  
Sea Level Pressure 29.92 in    
Wind  
Wind Speed 11 mph ()    
Max Wind Speed 18 mph    
Max Gust Speed -    
Visibility 6.1 miles    
Events Rain    
Averages and records for this station are not official NWS values.
T = Trace of Precipitation, MM = Missing Value Source: Averaged Metar Reports

Daily Weather History Graph

Daily Weather History Graph

Search for Another Location

Airport:

Trip Planner

Search our weather history database for the weather conditions in past years. The results will help you decide how hot, cold, wet, or windy it might be!

Date:

Astronomy

Aug. 16, 2013 Rise Set
Actual Time 5:48 AM BST 8:29 PM BST
Civil Twilight 5:09 AM BST 9:07 PM BST
Nautical Twilight 4:19 AM BST 9:57 PM BST
Astronomical Twilight 3:17 AM BST 10:58 PM BST
Moon 4:50 PM BST (8/16) 12:22 AM BST (8/16)
Length of Visible Light 15h 58m
Length of Day
14h 40m
Waxing Gibbous, 72% of the Moon is Illuminated
Aug 16
Waxing Gibbous
Aug 21
Full
Aug 28
Last Quarter
Sep 5
New
Sep 12
First Quarter

Hourly Weather History & Observations

Time (BST) Temp. Dew Point Humidity Pressure Visibility Wind Dir Wind Speed Gust Speed Precip Events Conditions
12:20 AM 62.6 °F 59.0 °F 88% 29.92 in 6.2 mi SW 13.8 mph - N/A Rain Light Rain Showers
12:50 AM 62.6 °F 59.0 °F 88% 29.92 in 6.2 mi SSW 13.8 mph - N/A Rain Light Rain Showers
1:20 AM 62.6 °F 59.0 °F 88% 29.92 in 6.2 mi SW 15.0 mph - N/A Rain Light Rain
1:50 AM 62.6 °F 60.8 °F 94% 29.89 in 6.2 mi SSW 13.8 mph - N/A Rain Rain
2:20 AM 62.6 °F 60.8 °F 94% 29.89 in 6.2 mi SSW 16.1 mph - N/A Rain Light Rain
2:50 AM 62.6 °F 60.8 °F 94% 29.89 in 6.2 mi SW 17.3 mph - N/A Rain Light Rain
3:20 AM 62.6 °F 60.8 °F 94% 29.89 in 6.2 mi SW 17.3 mph - N/A Rain Light Rain
3:50 AM 62.6 °F 60.8 °F 94% 29.89 in 6.2 mi SW 18.4 mph - N/A Rain Light Rain
4:20 AM 62.6 °F 60.8 °F 94% 29.86 in 6.2 mi SW 17.3 mph - N/A Rain Light Rain
4:50 AM 62.6 °F 60.8 °F 94% 29.86 in 6.2 mi SW 17.3 mph - N/A Rain Rain
5:20 AM 62.6 °F 60.8 °F 94% 29.89 in 6.2 mi West 9.2 mph - N/A Rain Light Rain
5:50 AM 62.6 °F 60.8 °F 94% 29.89 in 5.6 mi SW 10.4 mph - N/A Rain Light Rain
6:20 AM 62.6 °F 60.8 °F 94% 29.89 in 3.7 mi SW 15.0 mph - N/A Rain Light Rain
6:50 AM 62.6 °F 60.8 °F 94% 29.86 in 6.2 mi SW 15.0 mph - N/A Rain Light Rain
7:20 AM 62.6 °F 60.8 °F 94% 29.89 in 5.6 mi WSW 13.8 mph - N/A Rain Light Rain
7:50 AM 60.8 °F 59.0 °F 94% 29.89 in 5.6 mi SW 15.0 mph - N/A Rain Light Rain
8:20 AM 60.8 °F 59.0 °F 94% 29.89 in 6.2 mi SW 11.5 mph - N/A Rain Light Rain
8:50 AM 60.8 °F 57.2 °F 88% 29.89 in 6.2 mi SSW 11.5 mph - N/A Rain Light Rain
9:20 AM 60.8 °F 59.0 °F 94% 29.92 in 6.2 mi WSW 11.5 mph - N/A   Scattered Clouds
9:50 AM 62.6 °F 60.8 °F 94% 29.92 in 6.2 mi SW 11.5 mph - N/A   Scattered Clouds
10:20 AM 62.6 °F 60.8 °F 94% 29.92 in 6.2 mi West 10.4 mph - N/A   Scattered Clouds
10:50 AM 64.4 °F 59.0 °F 83% 29.92 in 6.2 mi West 11.5 mph - N/A   Scattered Clouds
11:20 AM 66.2 °F 60.8 °F 83% 29.92 in 6.2 mi WNW 10.4 mph - N/A   Scattered Clouds
11:50 AM 66.2 °F 59.0 °F 78% 29.92 in 6.2 mi NW 9.2 mph - N/A   Mostly Cloudy
12:20 PM 64.4 °F 59.0 °F 83% 29.92 in 6.2 mi WNW 10.4 mph - N/A   Mostly Cloudy
12:50 PM 66.2 °F 59.0 °F 78% 29.92 in 6.2 mi WNW 10.4 mph - N/A   Mostly Cloudy
1:20 PM 64.4 °F 59.0 °F 83% 29.92 in 6.2 mi West 10.4 mph - N/A   Mostly Cloudy
1:50 PM 66.2 °F 57.2 °F 73% 29.92 in 6.2 mi WNW 13.8 mph - N/A   Mostly Cloudy
2:20 PM 68.0 °F 57.2 °F 68% 29.92 in 6.2 mi West 10.4 mph - N/A   Mostly Cloudy
2:50 PM 69.8 °F 57.2 °F 64% 29.92 in 6.2 mi West 12.7 mph - N/A   Scattered Clouds
3:20 PM 69.8 °F 57.2 °F 64% 29.92 in 6.2 mi West 11.5 mph - N/A   Scattered Clouds
3:50 PM 68.0 °F 55.4 °F 64% 29.95 in 6.2 mi WNW 12.7 mph - N/A   Scattered Clouds
4:20 PM 69.8 °F 55.4 °F 60% 29.95 in 6.2 mi West 13.8 mph - N/A   Scattered Clouds
4:50 PM 69.8 °F 55.4 °F 60% 29.95 in 6.2 mi WNW 11.5 mph - N/A   Partly Cloudy
5:20 PM 69.8 °F 55.4 °F 60% 29.95 in 6.2 mi WNW 9.2 mph - N/A   Partly Cloudy
5:50 PM 69.8 °F 55.4 °F 60% 29.95 in 6.2 mi NW 8.1 mph - N/A   Partly Cloudy
6:20 PM 69.8 °F 55.4 °F 60% 29.95 in 6.2 mi NW 5.8 mph - N/A   Partly Cloudy
6:50 PM 69.8 °F 55.4 °F 60% 29.95 in 6.2 mi NW 4.6 mph - N/A   Partly Cloudy
7:20 PM 68.0 °F 55.4 °F 64% 29.95 in 6.2 mi NW 4.6 mph - N/A   Partly Cloudy
7:50 PM 66.2 °F 55.4 °F 68% 29.95 in 6.2 mi North 6.9 mph - N/A   Partly Cloudy
8:20 PM 64.4 °F 53.6 °F 68% 29.95 in 6.2 mi NNW 4.6 mph - N/A   Partly Cloudy
8:50 PM 64.4 °F 53.6 °F 68% 29.95 in 6.2 mi NNW 4.6 mph - N/A   Partly Cloudy
9:20 PM 62.6 °F 53.6 °F 72% 29.98 in 6.2 mi NW 4.6 mph - N/A   Partly Cloudy
9:50 PM 62.6 °F 53.6 °F 72% 29.98 in 6.2 mi Variable 3.5 mph - N/A   Partly Cloudy
10:20 PM 62.6 °F 53.6 °F 72% 29.98 in 6.2 mi Calm Calm - N/A   Scattered Clouds
10:50 PM 60.8 °F 53.6 °F 77% 29.98 in 6.2 mi Calm Calm - N/A   Scattered Clouds
11:20 PM 59.0 °F 53.6 °F 82% 29.98 in 6.2 mi SW 5.8 mph - N/A   Partly Cloudy
11:50 PM 57.2 °F 53.6 °F 88% 29.98 in 6.2 mi West 10.4 mph - N/A   Partly Cloudy